Location: Unspecified
(44.4377°N, 88.0525°W)
Time: 05:51:07
(UTC-06:00)

CZ-3 Stage 3 - Visible Passes

Search period start: 08 December 2016 00:00
Search period end: 18 December 2016 00:00
Orbit: 471 x 34731 km, 30.6° (Epoch: 06 December)

Date Brightness Start Highest point End Pass type
(mag) Time Alt. Az. Time Alt. Az. Time Alt. Az.
08 Dec 7.7 03:37:37 10° SSW 07:10:39 56° SW 12:51:52 10° SSE visible
09 Dec 8.4 00:14:06 10° SE 07:21:22 68° SE 09:12:43 10° ESE visible
10 Dec 10.2 00:04:17 10° E 03:36:11 28° E 05:11:46 10° ENE visible
11 Dec 7.7 03:28:29 10° SSW 06:58:50 56° SW 12:43:11 10° SSE visible
12 Dec 8.3 00:03:41 10° SE 07:10:26 68° SE 09:04:06 10° ESE visible
12 Dec 10.2 23:50:47 10° E 03:26:04 28° E 05:02:59 10° ENE visible
14 Dec 7.8 03:19:24 10° SSW 06:47:05 57° SW 12:34:30 10° SSE visible
14 Dec 8.2 23:53:25 10° SE 06:59:29 68° SE 08:55:29 10° ESE visible
15 Dec 10.2 23:37:20 10° ENE 03:15:59 28° E 04:54:13 10° ENE visible
17 Dec 7.9 03:10:20 10° SSW 06:35:24 57° SW 12:25:49 10° SSE visible
